UAE3LO EDDH-EDDM

Flight info

Callsign UAE3LO
Flight time 1h 2m
Altitude 35000
Route AMLUH2C/05 AMLUH M852 DENIX DCT ZUCKA DCT SODRO/N0439F310 T703 LULAR/N0435F300 T105 LANDU LANDU2A
Aircraft A388/J-SADE2E3FGHIJ3J4J5M1RWXY/LB1D1

Departure

Time 2026-05-06 14:26
Airport Hamburg Helmut Schmidt Airport (EDDH)

Arrival

Time 2026-05-06 15:28
Airport Munich Airport (EDDM)
Time Latitude Longitude Altitude Speed Heading
2026-05-06 13:14 53.63255 9.99904 48 ft 0 kts 142°
2026-05-06 13:38 53.63255 9.99903 55 ft 0 kts 140°
2026-05-06 13:59 53.63264 9.99891 48 ft 4 kts 142°
2026-05-06 13:59 53.63285 9.99864 47 ft 4 kts 143°
2026-05-06 14:00 53.63305 9.99841 55 ft 4 kts 176°
2026-05-06 14:00 53.63322 9.99852 47 ft 1 kts 230°
2026-05-06 14:00 53.63338 9.99884 47 ft 3 kts 230°
2026-05-06 14:00 53.63341 9.99889 49 ft 0 kts 230°
2026-05-06 14:07 53.63337 9.99882 47 ft 3 kts 230°
2026-05-06 14:07 53.63313 9.99834 55 ft 8 kts 230°
2026-05-06 14:07 53.63259 9.99767 52 ft 11 kts 191°
2026-05-06 14:07 53.63193 9.99793 51 ft 11 kts 154°
2026-05-06 14:08 53.63166 9.99815 47 ft 5 kts 153°
2026-05-06 14:08 53.63120 9.99855 51 ft 9 kts 153°
2026-05-06 14:08 53.63093 9.99878 48 ft 0 kts 152°
2026-05-06 14:09 53.63090 9.99880 49 ft 4 kts 152°
2026-05-06 14:09 53.63049 9.99917 50 ft 9 kts 152°
2026-05-06 14:09 53.62987 9.99973 49 ft 10 kts 151°
2026-05-06 14:10 53.62981 9.99979 50 ft 1 kts 151°
2026-05-06 14:10 53.62979 9.99981 50 ft 0 kts 151°
2026-05-06 14:10 53.62978 9.99982 50 ft 2 kts 151°
2026-05-06 14:11 53.62937 10.00021 49 ft 11 kts 150°
2026-05-06 14:11 53.62860 10.00028 55 ft 13 kts 201°
2026-05-06 14:11 53.62814 9.99976 48 ft 1 kts 211°
2026-05-06 14:11 53.62794 9.99956 48 ft 6 kts 211°
2026-05-06 14:12 53.62767 9.99929 50 ft 0 kts 211°
2026-05-06 14:12 53.62755 9.99917 48 ft 8 kts 210°
2026-05-06 14:12 53.62687 9.99850 46 ft 12 kts 210°
2026-05-06 14:13 53.62652 9.99809 47 ft 0 kts 227°
2026-05-06 14:13 53.62649 9.99803 48 ft 4 kts 232°
2026-05-06 14:13 53.62629 9.99711 55 ft 13 kts 256°
2026-05-06 14:13 53.62609 9.99533 50 ft 18 kts 260°
2026-05-06 14:14 53.62586 9.99310 52 ft 19 kts 260°
2026-05-06 14:14 53.62563 9.99083 49 ft 21 kts 257°
2026-05-06 14:14 53.62537 9.98875 52 ft 13 kts 259°
2026-05-06 14:14 53.62516 9.98699 51 ft 18 kts 259°
2026-05-06 14:15 53.62490 9.98473 53 ft 21 kts 259°
2026-05-06 14:15 53.62460 9.98233 49 ft 21 kts 253°
2026-05-06 14:15 53.62389 9.98009 52 ft 22 kts 234°
2026-05-06 14:15 53.62354 9.97936 50 ft 1 kts 230°
2026-05-06 14:16 53.62338 9.97905 54 ft 6 kts 230°
2026-05-06 14:16 53.62299 9.97829 50 ft 12 kts 229°
2026-05-06 14:16 53.62249 9.97730 48 ft 8 kts 230°
2026-05-06 14:16 53.62228 9.97688 50 ft 5 kts 230°
2026-05-06 14:17 53.62223 9.97678 47 ft 0 kts 231°
2026-05-06 14:18 53.62222 9.97675 47 ft 2 kts 231°
2026-05-06 14:19 53.62175 9.97578 51 ft 21 kts 230°
2026-05-06 14:19 53.62068 9.97370 54 ft 25 kts 229°
2026-05-06 14:19 53.61951 9.97126 51 ft 28 kts 231°
2026-05-06 14:19 53.61825 9.96864 50 ft 29 kts 230°
2026-05-06 14:20 53.61703 9.96627 52 ft 23 kts 229°
2026-05-06 14:20 53.61673 9.96484 49 ft 4 kts 297°
2026-05-06 14:20 53.61698 9.96434 47 ft 1 kts 327°
2026-05-06 14:20 53.61700 9.96432 47 ft 0 kts 329°
2026-05-06 14:22 53.61711 9.96421 47 ft 3 kts 336°
2026-05-06 14:22 53.61745 9.96411 50 ft 7 kts 356°
2026-05-06 14:22 53.61806 9.96397 52 ft 10 kts 352°
2026-05-06 14:23 53.61850 9.96422 46 ft 3 kts 51°
2026-05-06 14:23 53.61852 9.96426 46 ft 0 kts 51°
2026-05-06 14:25 53.61856 9.96437 46 ft 5 kts 51°
2026-05-06 14:25 53.62005 9.96738 49 ft 74 kts 50°
2026-05-06 14:25 53.62491 9.97709 48 ft 138 kts 50°
2026-05-06 14:25 53.63166 9.99085 271 ft 159 kts 49°
2026-05-06 14:26 53.63864 10.00494 1050 ft 148 kts 50°
2026-05-06 14:26 53.64515 10.01814 1762 ft 146 kts 51°
2026-05-06 14:26 53.65190 10.03186 2166 ft 158 kts 51°
2026-05-06 14:26 53.65920 10.04676 2415 ft 173 kts 51°
2026-05-06 14:27 53.66735 10.06346 2701 ft 196 kts 51°
2026-05-06 14:27 53.67598 10.08103 3597 ft 198 kts 51°
2026-05-06 14:27 53.68488 10.09918 4471 ft 206 kts 52°
2026-05-06 14:27 53.69417 10.11822 4888 ft 213 kts 52°
2026-05-06 14:28 53.70332 10.13789 5090 ft 214 kts 61°
2026-05-06 14:28 53.70664 10.15343 5355 ft 216 kts 82°
2026-05-06 14:28 53.70463 10.17862 6160 ft 222 kts 112°
2026-05-06 14:28 53.69522 10.19963 7134 ft 231 kts 139°
2026-05-06 14:29 53.68065 10.21135 7609 ft 239 kts 161°
2026-05-06 14:29 53.66337 10.21894 7837 ft 271 kts 164°
2026-05-06 14:29 53.64458 10.22661 7877 ft 281 kts 164°
2026-05-06 14:29 53.62558 10.23459 7878 ft 280 kts 164°
2026-05-06 14:30 53.60662 10.24277 7876 ft 281 kts 163°
2026-05-06 14:30 53.58770 10.25117 7876 ft 281 kts 163°
2026-05-06 14:30 53.56880 10.25961 7878 ft 281 kts 162°
2026-05-06 14:30 53.55006 10.26805 7885 ft 281 kts 162°
2026-05-06 14:31 53.53126 10.27653 7872 ft 279 kts 162°
2026-05-06 14:31 53.51253 10.28498 8026 ft 279 kts 162°
2026-05-06 14:31 53.49364 10.29350 8578 ft 282 kts 162°
2026-05-06 14:31 53.47459 10.30207 9382 ft 285 kts 162°
2026-05-06 14:32 53.45537 10.31070 9796 ft 287 kts 163°
2026-05-06 14:32 53.43577 10.31949 10256 ft 301 kts 163°
2026-05-06 14:32 53.41483 10.32891 10539 ft 322 kts 163°
2026-05-06 14:32 53.39277 10.33891 11043 ft 332 kts 164°
2026-05-06 14:33 53.37050 10.34895 11915 ft 332 kts 165°
2026-05-06 14:33 53.34811 10.35899 12675 ft 335 kts 165°
2026-05-06 14:33 53.32543 10.36914 13393 ft 339 kts 166°
2026-05-06 14:33 53.30265 10.37933 14095 ft 342 kts 166°
2026-05-06 14:34 53.27948 10.38972 14688 ft 348 kts 167°
2026-05-06 14:34 53.25596 10.40025 15313 ft 351 kts 167°
2026-05-06 14:34 53.23231 10.41080 16014 ft 353 kts 167°
2026-05-06 14:34 53.20871 10.42131 16651 ft 357 kts 167°
2026-05-06 14:35 53.18467 10.43202 17289 ft 360 kts 167°
2026-05-06 14:35 53.16035 10.44284 17954 ft 363 kts 167°
2026-05-06 14:35 53.13585 10.45374 18529 ft 366 kts 167°
2026-05-06 14:35 53.11086 10.46272 19066 ft 369 kts 171°
2026-05-06 14:36 53.08542 10.47049 19592 ft 373 kts 171°
2026-05-06 14:36 53.05988 10.47838 20131 ft 376 kts 171°
2026-05-06 14:36 53.03402 10.48642 20642 ft 379 kts 170°
2026-05-06 14:36 53.00795 10.49453 21131 ft 382 kts 170°
2026-05-06 14:37 52.98165 10.50271 21659 ft 385 kts 170°
2026-05-06 14:37 52.95517 10.51094 22123 ft 389 kts 170°
2026-05-06 14:37 52.92834 10.51925 22607 ft 393 kts 170°
2026-05-06 14:37 52.90177 10.52748 23155 ft 394 kts 170°
2026-05-06 14:38 52.87467 10.53586 23634 ft 396 kts 169°
2026-05-06 14:38 52.84745 10.54426 24022 ft 400 kts 169°
2026-05-06 14:38 52.81996 10.55273 24522 ft 400 kts 169°
2026-05-06 14:38 52.79243 10.56121 24901 ft 404 kts 169°
2026-05-06 14:39 52.76479 10.56972 25467 ft 404 kts 169°
2026-05-06 14:39 52.73702 10.57825 25803 ft 410 kts 169°
2026-05-06 14:39 52.70886 10.58688 26381 ft 410 kts 169°
2026-05-06 14:39 52.68069 10.59554 26915 ft 412 kts 170°
2026-05-06 14:40 52.65242 10.60420 27445 ft 415 kts 170°
2026-05-06 14:40 52.62384 10.61291 27933 ft 418 kts 170°
2026-05-06 14:40 52.59517 10.62163 28473 ft 421 kts 170°
2026-05-06 14:40 52.56655 10.63034 28980 ft 425 kts 170°
2026-05-06 14:41 52.53739 10.63920 29507 ft 428 kts 170°
2026-05-06 14:41 52.50809 10.64814 30139 ft 427 kts 172°
2026-05-06 14:41 52.47877 10.65705 30617 ft 431 kts 172°
2026-05-06 14:41 52.44907 10.66601 31034 ft 435 kts 172°
2026-05-06 14:42 52.41917 10.67503 31481 ft 439 kts 172°
2026-05-06 14:42 52.38902 10.68413 31914 ft 442 kts 172°
2026-05-06 14:42 52.35860 10.69330 32339 ft 446 kts 172°
2026-05-06 14:42 52.32802 10.70251 32751 ft 450 kts 172°
2026-05-06 14:43 52.29706 10.71182 33178 ft 453 kts 172°
2026-05-06 14:43 52.26634 10.72105 33587 ft 457 kts 173°
2026-05-06 14:43 52.23489 10.73049 33988 ft 460 kts 173°
2026-05-06 14:43 52.20322 10.73997 34340 ft 464 kts 173°
2026-05-06 14:44 52.17140 10.74949 34666 ft 468 kts 173°
2026-05-06 14:44 52.13916 10.75912 34775 ft 467 kts 173°
2026-05-06 14:45 52.04282 10.78783 34783 ft 470 kts 173°
2026-05-06 14:45 51.97859 10.80691 34775 ft 468 kts 173°
2026-05-06 14:46 51.91563 10.83094 34790 ft 472 kts 162°
2026-05-06 14:46 51.85573 10.87586 34785 ft 475 kts 158°
2026-05-06 14:47 51.79577 10.92124 34785 ft 475 kts 160°
2026-05-06 14:47 51.73539 10.96461 34780 ft 475 kts 160°
2026-05-06 14:48 51.67518 11.00714 34780 ft 475 kts 160°
2026-05-06 14:48 51.61459 11.04979 34780 ft 475 kts 160°
2026-05-06 14:49 51.55399 11.09235 34780 ft 476 kts 160°
2026-05-06 14:49 51.49325 11.13491 34801 ft 475 kts 160°
2026-05-06 14:50 51.43264 11.17724 34796 ft 474 kts 160°
2026-05-06 14:50 51.37211 11.21938 34794 ft 474 kts 160°
2026-05-06 14:51 51.31164 11.26137 34786 ft 473 kts 161°
2026-05-06 14:51 51.25118 11.30323 34784 ft 473 kts 161°
2026-05-06 14:52 51.19115 11.34467 34789 ft 472 kts 161°
2026-05-06 14:52 51.13081 11.38621 34786 ft 472 kts 161°
2026-05-06 14:53 51.07041 11.42767 34749 ft 471 kts 161°
2026-05-06 14:53 51.01026 11.46887 34766 ft 470 kts 161°
2026-05-06 14:54 50.95045 11.50968 34771 ft 470 kts 161°
2026-05-06 14:54 50.89034 11.55058 34764 ft 469 kts 161°
2026-05-06 14:55 50.83030 11.59133 34763 ft 469 kts 161°
2026-05-06 14:55 50.77035 11.63190 34761 ft 469 kts 161°
2026-05-06 14:56 50.71067 11.67219 34762 ft 468 kts 162°
2026-05-06 14:56 50.65073 11.71254 34759 ft 468 kts 162°
2026-05-06 14:57 50.59085 11.75273 34751 ft 467 kts 162°
2026-05-06 14:57 50.53089 11.79284 34754 ft 467 kts 162°
2026-05-06 14:58 50.47109 11.83278 34530 ft 462 kts 162°
2026-05-06 14:58 50.44163 11.85245 34122 ft 459 kts 162°
2026-05-06 14:58 50.41238 11.87192 33631 ft 456 kts 163°
2026-05-06 14:58 50.38367 11.89099 33101 ft 450 kts 162°
2026-05-06 14:59 50.35502 11.90999 32550 ft 444 kts 162°
2026-05-06 14:59 50.32667 11.92877 32031 ft 438 kts 162°
2026-05-06 14:59 50.29873 11.94724 31514 ft 433 kts 162°
2026-05-06 14:59 50.27112 11.96549 31007 ft 429 kts 162°
2026-05-06 15:00 50.24375 11.98354 30505 ft 425 kts 162°
2026-05-06 15:00 50.21647 12.00152 30024 ft 422 kts 162°
2026-05-06 15:00 50.18950 12.01928 29768 ft 420 kts 162°
2026-05-06 15:00 50.16251 12.03702 29528 ft 421 kts 162°
2026-05-06 15:01 50.13553 12.05472 29233 ft 420 kts 162°
2026-05-06 15:01 50.10863 12.07236 28945 ft 418 kts 162°
2026-05-06 15:01 50.08179 12.08994 28662 ft 417 kts 162°
2026-05-06 15:01 50.05547 12.10717 28380 ft 415 kts 162°
2026-05-06 15:02 50.02883 12.12458 28102 ft 413 kts 162°
2026-05-06 15:02 50.00237 12.14186 27817 ft 411 kts 162°
2026-05-06 15:02 49.97606 12.15903 27548 ft 410 kts 162°
2026-05-06 15:02 49.94971 12.17619 27280 ft 408 kts 162°
2026-05-06 15:03 49.92350 12.19323 27015 ft 407 kts 162°
2026-05-06 15:03 49.89771 12.20998 26803 ft 405 kts 162°
2026-05-06 15:03 49.87171 12.22685 26759 ft 405 kts 162°
2026-05-06 15:03 49.84567 12.24372 26753 ft 405 kts 162°
2026-05-06 15:04 49.81964 12.26057 26756 ft 405 kts 162°
2026-05-06 15:04 49.79354 12.27745 26754 ft 405 kts 162°
2026-05-06 15:04 49.76753 12.29427 26729 ft 404 kts 163°
2026-05-06 15:04 49.74159 12.31118 26759 ft 405 kts 161°
2026-05-06 15:05 49.71649 12.33168 26753 ft 411 kts 154°
2026-05-06 15:05 49.69317 12.35691 26756 ft 416 kts 149°
2026-05-06 15:05 49.67028 12.38407 26763 ft 416 kts 149°
2026-05-06 15:05 49.64728 12.41118 26752 ft 416 kts 149°
2026-05-06 15:06 49.62420 12.43823 26752 ft 415 kts 149°
2026-05-06 15:06 49.60116 12.46513 26748 ft 415 kts 149°
2026-05-06 15:06 49.57813 12.49194 26750 ft 416 kts 149°
2026-05-06 15:06 49.55507 12.51876 26750 ft 416 kts 149°
2026-05-06 15:07 49.53198 12.54559 26744 ft 416 kts 149°
2026-05-06 15:07 49.50889 12.57237 26753 ft 415 kts 149°
2026-05-06 15:07 49.48578 12.59916 26753 ft 415 kts 149°
2026-05-06 15:07 49.46272 12.62586 26728 ft 415 kts 149°
2026-05-06 15:08 49.43975 12.65259 26739 ft 417 kts 148°
2026-05-06 15:08 49.41808 12.68221 26744 ft 420 kts 144°
2026-05-06 15:08 49.39466 12.70824 26749 ft 409 kts 158°
2026-05-06 15:08 49.36859 12.72401 26745 ft 398 kts 172°
2026-05-06 15:09 49.34161 12.72891 26745 ft 388 kts 186°
2026-05-06 15:09 49.31517 12.72293 26741 ft 382 kts 199°
2026-05-06 15:09 49.29065 12.70755 26743 ft 379 kts 208°
2026-05-06 15:09 49.26706 12.68928 26741 ft 379 kts 208°
2026-05-06 15:10 49.24365 12.67206 26562 ft 376 kts 207°
2026-05-06 15:10 49.21985 12.65501 25702 ft 380 kts 206°
2026-05-06 15:10 49.19556 12.63767 24590 ft 390 kts 206°
2026-05-06 15:10 49.17089 12.62001 23792 ft 390 kts 206°
2026-05-06 15:11 49.14643 12.60251 23067 ft 386 kts 206°
2026-05-06 15:11 49.12219 12.58518 22187 ft 381 kts 206°
2026-05-06 15:11 49.09831 12.56813 21294 ft 377 kts 206°
2026-05-06 15:11 49.07493 12.55145 20446 ft 373 kts 205°
2026-05-06 15:12 49.05147 12.53473 19595 ft 370 kts 205°
2026-05-06 15:12 49.02823 12.51818 18766 ft 367 kts 206°
2026-05-06 15:12 49.00517 12.50170 17996 ft 364 kts 206°
2026-05-06 15:12 48.98228 12.48532 17109 ft 361 kts 206°
2026-05-06 15:13 48.95961 12.46912 16064 ft 359 kts 206°
2026-05-06 15:13 48.93708 12.45304 15078 ft 356 kts 206°
2026-05-06 15:13 48.91469 12.43708 14104 ft 353 kts 206°
2026-05-06 15:13 48.89251 12.42122 13105 ft 350 kts 208°
2026-05-06 15:14 48.87317 12.40027 12050 ft 345 kts 223°
2026-05-06 15:14 48.85589 12.37456 11166 ft 339 kts 224°
2026-05-06 15:14 48.83957 12.34990 10447 ft 331 kts 224°
2026-05-06 15:14 48.82352 12.32544 9925 ft 319 kts 224°
2026-05-06 15:15 48.80806 12.30177 9741 ft 311 kts 224°
2026-05-06 15:15 48.79330 12.27889 9492 ft 295 kts 224°
2026-05-06 15:15 48.77942 12.25729 9319 ft 277 kts 224°
2026-05-06 15:15 48.76618 12.23669 8988 ft 272 kts 224°
2026-05-06 15:16 48.75295 12.21616 8530 ft 272 kts 224°
2026-05-06 15:16 48.73965 12.19564 8093 ft 273 kts 224°
2026-05-06 15:16 48.73087 12.18210 7864 ft 272 kts 224°
2026-05-06 15:16 48.71323 12.15488 7732 ft 272 kts 224°
2026-05-06 15:17 48.69996 12.13440 7724 ft 273 kts 224°
2026-05-06 15:17 48.69098 12.12054 7725 ft 273 kts 224°
2026-05-06 15:17 48.67779 12.10026 7728 ft 274 kts 224°
2026-05-06 15:17 48.66441 12.07974 7724 ft 272 kts 223°
2026-05-06 15:18 48.64881 12.06384 7734 ft 272 kts 200°
2026-05-06 15:18 48.63018 12.06004 7619 ft 273 kts 174°
2026-05-06 15:18 48.61211 12.06885 7336 ft 275 kts 154°
2026-05-06 15:18 48.59505 12.08195 7042 ft 274 kts 154°
2026-05-06 15:19 48.57805 12.09477 6746 ft 272 kts 154°
2026-05-06 15:19 48.56115 12.10744 6448 ft 272 kts 154°
2026-05-06 15:19 48.54427 12.11994 6171 ft 270 kts 154°
2026-05-06 15:19 48.52724 12.13239 5871 ft 272 kts 154°
2026-05-06 15:20 48.51029 12.14498 5571 ft 271 kts 149°
2026-05-06 15:20 48.49612 12.16348 5279 ft 270 kts 134°
2026-05-06 15:20 48.48302 12.18371 5014 ft 268 kts 135°
2026-05-06 15:20 48.47029 12.20380 4938 ft 263 kts 134°
2026-05-06 15:21 48.45768 12.22385 4942 ft 264 kts 134°
2026-05-06 15:21 48.44525 12.24360 4943 ft 262 kts 135°
2026-05-06 15:21 48.43054 12.25950 4942 ft 262 kts 159°
2026-05-06 15:21 48.41251 12.26163 4944 ft 265 kts 192°
2026-05-06 15:22 48.39611 12.24952 4938 ft 267 kts 219°
2026-05-06 15:22 48.38501 12.22694 4941 ft 273 kts 246°
2026-05-06 15:22 48.38189 12.19886 4939 ft 278 kts 272°
2026-05-06 15:22 48.38740 12.17081 4967 ft 281 kts 292°
2026-05-06 15:23 48.39153 12.14262 4970 ft 276 kts 268°
2026-05-06 15:23 48.38985 12.11480 4958 ft 259 kts 260°
2026-05-06 15:23 48.38749 12.08949 4953 ft 232 kts 263°
2026-05-06 15:23 48.38578 12.06583 4696 ft 224 kts 262°
2026-05-06 15:24 48.38400 12.04359 4437 ft 201 kts 263°
2026-05-06 15:24 48.38251 12.02378 4174 ft 182 kts 263°
2026-05-06 15:24 48.38104 12.00517 3913 ft 176 kts 264°
2026-05-06 15:24 48.37968 11.98718 3667 ft 175 kts 263°
2026-05-06 15:25 48.37828 11.96890 3447 ft 175 kts 264°
2026-05-06 15:25 48.37690 11.95089 3221 ft 172 kts 264°
2026-05-06 15:25 48.37548 11.93332 2998 ft 163 kts 264°
2026-05-06 15:25 48.37427 11.91683 2795 ft 156 kts 264°
2026-05-06 15:26 48.37303 11.90095 2580 ft 155 kts 264°
2026-05-06 15:26 48.37180 11.88478 2384 ft 150 kts 265°
2026-05-06 15:26 48.37064 11.86984 2171 ft 143 kts 265°
2026-05-06 15:26 48.36951 11.85517 1964 ft 140 kts 264°
2026-05-06 15:27 48.36819 11.84062 1732 ft 141 kts 264°
2026-05-06 15:27 48.36725 11.82617 1570 ft 137 kts 266°
2026-05-06 15:27 48.36615 11.81221 1479 ft 122 kts 264°
2026-05-06 15:27 48.36546 11.80252 1468 ft 59 kts 265°
2026-05-06 15:28 48.36513 11.79806 1462 ft 38 kts 263°
2026-05-06 15:28 48.36483 11.79441 1472 ft 32 kts 263°
2026-05-06 15:28 48.36456 11.79122 1471 ft 31 kts 263°
2026-05-06 15:28 48.36429 11.78801 1465 ft 32 kts 263°
2026-05-06 15:29 48.36393 11.78450 1458 ft 35 kts 259°
2026-05-06 15:29 48.36323 11.78098 1460 ft 29 kts 230°
2026-05-06 15:29 48.36211 11.77874 1457 ft 27 kts 234°
2026-05-06 15:29 48.36121 11.77687 1460 ft 20 kts 218°
2026-05-06 15:30 48.36048 11.77673 1465 ft 12 kts 174°
2026-05-06 15:30 48.35946 11.77682 1469 ft 17 kts 178°
2026-05-06 15:30 48.35821 11.77695 1470 ft 19 kts 173°
2026-05-06 15:30 48.35770 11.77704 1466 ft 5 kts 173°
2026-05-06 15:31 48.35700 11.77717 1461 ft 14 kts 173°
2026-05-06 15:31 48.35581 11.77738 1465 ft 20 kts 173°
2026-05-06 15:31 48.35460 11.77760 1466 ft 0 kts 173°
2026-05-06 15:32 48.35376 11.77780 1463 ft 13 kts 148°
2026-05-06 15:32 48.35355 11.77825 1467 ft 3 kts 97°
2026-05-06 15:32 48.35353 11.77895 1466 ft 11 kts 90°
2026-05-06 15:32 48.35367 11.77991 1466 ft 10 kts 78°
2026-05-06 15:33 48.35376 11.78068 1463 ft 6 kts 80°
2026-05-06 15:33 48.35368 11.78123 1463 ft 4 kts 141°
2026-05-06 15:33 48.35318 11.78154 1463 ft 10 kts 164°
2026-05-06 15:33 48.35268 11.78172 1469 ft 3 kts 169°
2026-05-06 15:34 48.35258 11.78175 1465 ft 0 kts 169°
2026-05-06 15:34 48.35253 11.78177 1461 ft 4 kts 169°
2026-05-06 15:34 48.35238 11.78185 1462 ft 1 kts 128°
2026-05-06 15:34 48.35234 11.78200 1462 ft 1 kts 85°
2026-05-06 15:35 48.35242 11.78224 1460 ft 6 kts 53°
2026-05-06 15:35 48.35263 11.78259 1462 ft 1 kts 29°
2026-05-06 15:35 48.35269 11.78267 1460 ft 1 kts 60°
2026-05-06 15:35 48.35272 11.78282 1465 ft 3 kts 83°
2026-05-06 15:36 48.35274 11.78301 1462 ft 0 kts 84°
2026-05-06 15:37 48.35236 11.78335 1462 ft 0 kts 81°